Theta_e
327 335 343 341 338 335 334 330 325 327 326 321 317 323 328 330 330 331 332 332 331 328 323 320 322 334 330 337 334 332 330 330 330 329 326 316 310 311 311 314 329 331 330
326 337 342 342 340 338 335 331 329 329 324 325 332 330 330 332 332 330 330 327 323 319 318 315 318 329 333 332 331 331 331 330 329 324 316 315 313 314 314 318 326 332 324
329 341 343 343 342 339 336 331 330 329 322 329 332 328 329 330 330 329 324 319 317 317 314 315 318 322 326 330 328 331 330 327 319 312 311 324 316 314 314 318 328 327 320
328 344 346 343 343 340 335 333 331 329 324 319 331 326 326 329 329 329 320 319 315 314 314 315 315 312 312 314 318 317 315 313 311 309 320 321 322 314 314 317 323 327 323
331 336 344 342 343 341 336 334 333 328 323 320 325 329 329 326 324 324 327 324 319 316 316 316 316 317 317 317 317 328 329 322 314 319 322 316 313 319 311 315 323 328 329
335 337 338 341 343 341 339 337 334 327 322 319 328 329 329 330 331 329 329 327 325 318 317 317 318 318 318 318 318 318 317 317 317 328 322 324 320 320 316 313 315 323 327
340 345 340 341 342 341 340 339 338 327 322 319 329 329 330 331 332 332 332 329 327 321 319 319 320 329 323 322 324 322 321 322 322 324 322 322 323 322 322 321 320 317 317
332 343 342 343 342 341 341 340 337 324 319 319 328 329 330 330 332 333 332 330 327 323 321 321 326 327 327 329 328 327 326 326 329 330 328 326 324 324 323 324 327 326 325
332 342 341 341 342 341 341 340 336 324 321 320 324 330 330 331 332 333 333 330 327 320 319 325 328 330 330 330 329 328 327 325 325 327 322 326 324 322 324 328 329 330 331
332 340 341 341 339 340 339 339 335 325 326 320 319 322 328 331 332 331 329 329 327 319 322 327 329 330 330 329 327 325 323 320 319 316 319 320 318 317 318 322 325 327 329
335 340 340 341 340 340 339 338 336 327 332 325 320 316 317 323 327 328 325 323 319 320 325 327 329 329 327 325 324 322 320 320 316 313 313 312 312 313 316 317 317 319 322
338 334 332 340 343 340 338 338 336 331 331 330 325 318 315 317 321 322 319 317 320 325 327 326 328 326 325 324 321 315 312 311 310 310 311 311 311 311 311 313 317 319 319
339 339 333 335 339 339 338 336 336 334 334 331 325 320 313 315 318 317 320 325 327 328 327 329 328 327 325 320 311 310 310 310 310 310 310 309 308 308 315 321 321 321 322
338 337 332 333 335 336 338 337 338 335 333 332 329 320 316 316 317 322 330 328 329 327 327 327 326 324 318 309 309 309 308 307 306 305 307 304 305 307 312 316 316 319 320
334 333 333 329 332 335 339 338 337 335 333 333 330 320 324 325 328 327 327 326 327 326 326 325 320 310 308 308 307 306 305 304 303 303 306 305 306 308 310 312 315 315 316
330 328 331 327 327 330 336 337 336 336 335 334 331 324 328 330 328 329 329 328 327 327 323 312 309 309 307 306 304 303 303 303 303 303 304 305 306 308 309 310 310 310 310
326 329 326 326 326 327 334 338 337 335 333 333 332 330 330 328 328 329 328 327 326 323 309 309 308 306 303 302 302 302 302 302 301 302 303 304 305 306 306 306 306 306 307
323 323 323 323 324 324 330 337 337 335 334 334 333 331 330 329 329 328 327 325 324 309 309 308 306 303 302 302 302 301 301 301 300 301 301 301 300 299 299 299 298 298 299
324 323 323 323 323 325 334 336 338 336 336 334 333 331 330 329 328 327 326 324 309 309 310 308 306 304 302 301 301 301 301 300 300 301 301 302 303 300 300 299 298 297 297
324 323 323 323 323 324 333 337 336 336 336 334 333 331 331 329 328 326 323 308 310 311 311 310 308 306 303 300 299 299 299 299 300 301 302 299 298 297 298 297 297 297 297
323 323 324 323 323 324 328 329 334 336 335 333 333 332 332 329 326 322 307 310 312 311 311 310 308 306 302 299 298 299 298 298 298 300 297 297 297 297 297 296 296 296 296
322 323 324 324 323 324 325 329 331 333 334 334 334 333 330 326 321 309 309 312 312 311 311 310 308 305 300 297 296 298 299 299 298 297 297 297 296 297 296 297 296 296 295
321 322 323 324 324 324 327 332 333 333 334 334 333 330 325 317 312 308 311 312 311 311 310 309 308 304 298 296 295 295 297 299 296 297 297 296 296 296 296 296 295 295 294
320 321 322 323 324 325 328 331 332 330 332 333 332 328 322 312 308 310 311 311 310 310 309 308 306 303 298 295 294 294 294 293 294 296 296 295 294 294 294 293 294 293 292
318 318 322 323 325 326 328 332 334 333 333 332 330 325 317 308 309 310 311 310 309 309 308 307 305 301 297 295 294 294 293 293 293 293 294 295 294 293 292 291 291 291 291
319 318 321 324 326 327 330 332 334 333 331 330 326 321 310 308 309 310 310 309 308 308 307 306 303 300 296 294 294 293 293 292 292 292 292 293 293 292 291 291 290 290 290
Wind_Speed
11 15 16 15 12 10 9 7 5 5 3 1 3 6 5 4 3 3 4 5 5 7 9 8 3 3 6 7 5 2 4 7 8 10 11 11 8 6 7 8 9 6 13
11 15 15 14 11 10 8 6 4 5 5 8 10 8 9 7 4 4 4 5 5 6 5 4 4 8 5 5 5 5 5 8 10 10 10 9 3 2 2 3 3 6 7
15 16 15 13 13 9 6 5 4 4 6 10 7 5 11 10 6 1 1 2 1 2 3 3 3 5 9 9 7 8 9 11 10 8 6 4 4 4 1 2 3 6 6
15 16 15 15 13 9 6 6 4 3 6 8 9 6 13 12 9 7 6 7 7 6 6 5 5 3 3 4 4 5 5 5 5 5 4 3 3 5 3 4 5 7 4
17 15 16 15 13 8 6 6 3 3 5 8 15 16 12 12 10 8 5 7 7 7 7 7 6 6 5 3 1 3 4 4 3 4 5 4 3 7 5 6 5 6 8
16 16 15 16 12 8 7 6 5 3 5 8 11 14 13 8 7 4 3 6 6 5 5 5 5 5 4 4 4 5 5 5 4 5 6 7 6 7 7 8 8 9 10
16 16 15 15 13 10 9 5 4 3 5 8 13 15 9 7 6 8 3 2 4 4 4 5 5 6 6 6 6 6 7 7 7 7 8 9 9 10 9 9 10 10 11
15 16 15 16 13 11 10 8 7 2 5 9 13 13 10 9 4 5 6 1 2 4 4 5 5 6 6 7 8 8 8 9 8 9 10 11 13 13 13 12 12 12 12
15 14 13 15 15 13 11 10 7 4 5 9 12 12 10 9 4 4 6 3 3 3 3 4 4 5 6 7 10 12 13 13 11 9 12 10 14 15 14 12 13 14 16
16 15 13 13 13 14 13 11 7 5 6 7 10 10 11 10 8 6 6 6 5 4 3 2 4 7 8 10 12 12 12 11 9 10 8 9 11 12 12 12 14 16 18
16 16 14 12 13 15 14 13 9 7 7 6 7 7 9 11 11 9 8 7 6 5 4 5 6 9 10 12 13 14 13 12 12 11 10 13 13 14 14 14 14 15 16
16 17 18 15 14 14 15 14 11 9 8 7 6 6 8 9 10 10 8 6 6 5 6 8 8 10 11 14 16 15 13 14 13 15 14 16 16 14 15 14 13 13 14
14 15 17 17 16 15 14 15 14 11 11 9 8 8 7 9 9 8 5 4 4 6 8 9 10 12 15 16 16 17 18 18 18 16 18 18 16 13 9 8 10 11 11
15 15 14 16 17 17 15 15 14 12 12 11 9 10 10 9 9 7 5 6 6 6 7 8 12 14 17 18 20 20 21 20 18 15 14 14 10 10 11 12 12 10 11
16 15 15 14 16 17 17 16 15 13 13 12 11 12 11 9 8 8 7 5 5 7 9 11 13 16 18 20 21 21 20 17 13 10 7 8 7 7 9 10 9 11 11
16 17 16 16 15 16 18 17 16 15 15 13 12 14 12 9 9 6 7 5 7 8 10 12 16 19 20 21 20 19 17 14 11 8 6 8 6 7 9 11 12 12 12
16 16 17 18 20 19 21 20 18 17 17 14 13 13 12 9 8 7 8 6 8 8 10 15 18 19 19 18 16 15 14 11 10 7 6 6 7 8 11 12 13 14 15
17 17 17 18 20 21 23 24 22 19 18 14 15 12 11 11 10 8 8 8 8 7 11 15 16 17 17 15 13 12 13 12 8 6 5 4 5 8 10 11 13 15 16
19 17 21 19 19 21 23 28 25 21 21 18 15 14 14 14 10 10 10 8 5 6 10 13 16 16 15 13 12 12 11 6 6 5 5 7 11 14 14 16 17 19 20
25 21 24 26 23 22 26 29 30 26 22 20 19 18 18 16 12 11 10 7 3 5 10 13 15 17 16 15 11 9 6 4 6 6 6 11 11 14 15 17 21 23 24
22 22 21 24 24 25 30 34 31 26 24 22 21 21 21 17 14 12 10 6 1 5 9 13 16 17 17 16 13 6 5 4 5 5 6 9 14 13 17 19 24 23 24
23 22 22 22 23 27 30 32 30 30 26 25 24 26 25 20 16 14 10 5 2 6 11 14 16 17 17 16 14 7 5 3 0 11 14 16 4 19 17 23 23 23 26
24 26 24 23 24 27 30 36 35 31 29 30 31 32 25 21 18 15 10 4 3 7 11 15 16 16 14 15 13 7 4 3 15 4 12 11 18 21 25 25 23 28 23
29 27 27 26 24 28 32 38 36 35 33 32 33 29 25 23 20 15 9 4 4 8 12 14 17 16 13 12 11 12 8 8 5 10 9 14 16 21 21 21 25 24 25
30 31 30 29 25 27 31 35 36 31 30 28 32 30 28 25 21 15 9 5 4 7 11 14 16 16 14 13 12 12 11 10 8 9 20 16 21 20 20 21 23 18 17
25 32 32 29 28 27 28 32 36 33 30 32 35 32 30 26 23 16 9 6 5 7 11 13 15 16 15 14 13 12 12 10 10 12 19 23 25 23 24 22 17 18 20
Wind_Direction
171 168 168 166 167 159 152 142 122 107 89 50 173 174 177 191 223 262 272 263 282 302 304 312 198 161 131 127 144 193 260 288 275 282 293 301 294 278 267 239 235 265 270
171 167 164 162 167 159 146 139 113 90 73 98 113 130 172 158 162 184 256 290 299 295 302 313 193 197 177 165 189 216 238 267 295 299 305 318 330 328 315 155 179 238 270
163 161 163 163 173 176 154 147 123 97 97 130 145 143 178 172 184 94 2 11 40 3 13 45 168 204 214 220 242 242 258 279 294 308 319 339 317 329 322 179 213 255 272
164 161 166 168 183 194 182 160 137 104 107 144 163 119 120 119 122 119 72 57 55 54 60 78 82 77 172 216 239 259 272 286 305 324 356 323 318 303 283 243 246 261 291
166 167 175 168 182 200 209 170 154 120 110 123 127 115 108 109 112 115 71 51 49 56 65 72 70 64 64 62 47 21 358 325 343 14 343 329 309 295 276 260 254 259 275
166 173 177 170 184 205 190 182 160 132 123 134 132 135 135 143 157 161 74 36 26 41 48 54 52 47 30 26 10 352 341 347 8 326 327 316 314 293 285 275 264 252 246
174 174 175 173 191 200 184 181 176 142 126 139 137 136 137 150 171 197 176 49 10 11 21 33 32 19 13 14 357 346 341 336 337 321 315 304 301 296 292 286 280 274 275
186 177 179 180 199 202 182 184 191 176 129 145 149 148 152 159 186 194 188 187 328 335 360 16 28 27 16 3 342 336 326 323 336 317 310 304 294 294 295 297 296 301 305
183 182 179 190 198 188 198 192 187 182 139 147 160 165 163 173 173 159 180 204 276 300 335 13 26 354 335 330 328 324 321 319 322 307 313 312 296 296 295 294 299 295 291
188 185 184 183 186 191 204 203 212 195 159 153 164 176 181 187 191 189 186 203 245 283 290 304 324 321 321 319 319 322 327 328 324 323 323 313 315 317 312 300 285 284 281
196 189 185 187 187 193 205 211 214 197 186 175 173 174 187 197 201 205 217 231 244 254 269 288 310 320 325 322 323 325 323 319 318 313 313 309 308 307 302 299 296 292 287
202 206 203 193 191 195 202 214 212 198 190 188 195 190 198 197 201 206 213 221 243 263 282 292 311 316 322 319 319 323 317 314 313 308 305 303 301 299 297 298 293 288 287
206 208 216 213 204 198 201 208 210 190 190 194 204 202 189 188 191 199 206 210 241 273 293 308 313 311 311 315 315 314 312 311 310 307 300 303 301 299 300 279 271 276 287
212 211 219 221 223 213 201 205 202 194 197 195 203 203 189 184 186 188 182 217 239 276 292 299 307 308 310 312 311 309 308 307 306 303 299 304 298 286 272 263 283 280 262
221 218 216 221 222 220 213 203 202 199 199 196 200 195 187 182 180 201 220 227 253 279 291 302 308 310 311 313 312 312 310 309 308 307 298 303 298 286 281 283 282 277 277
226 226 225 233 232 226 219 217 205 201 199 197 195 194 189 186 198 200 229 246 267 283 298 311 314 315 317 318 316 313 311 309 304 301 285 296 289 282 279 282 280 281 279
233 230 237 235 240 235 222 217 203 202 202 196 192 192 194 206 200 226 228 244 269 288 309 317 320 323 324 325 319 315 311 305 299 288 277 278 288 284 284 285 286 287 286
239 245 236 241 244 240 226 215 209 202 196 192 193 205 204 206 216 226 232 249 269 295 317 325 329 332 334 332 324 315 306 297 273 260 262 273 292 300 301 298 300 298 296
251 237 251 254 247 237 217 216 212 200 198 201 206 205 203 205 209 225 228 236 258 315 335 338 338 339 337 336 328 317 304 282 241 241 264 287 297 298 296 302 309 305 305
251 247 246 254 253 235 210 209 209 206 198 205 205 205 201 200 211 211 210 213 271 344 349 350 347 345 345 345 344 330 315 288 249 247 284 309 298 316 307 309 316 319 317
245 241 240 247 241 234 212 211 207 202 205 207 204 203 199 199 196 196 196 205 268 349 356 357 354 352 350 354 1 349 340 312 273 244 271 332 302 316 320 320 322 320 316
242 241 242 241 245 229 221 210 208 203 200 205 203 200 194 191 190 192 196 202 300 352 360 1 1 356 353 358 7 357 328 308 297 301 282 301 291 323 315 317 317 317 315
240 237 238 238 240 223 217 204 204 197 197 197 195 191 186 185 189 192 196 215 325 353 359 359 359 360 354 352 0 18 328 300 313 278 296 306 305 311 316 318 321 324 316
236 239 235 235 230 216 213 210 209 203 195 195 197 192 186 188 191 195 201 230 313 349 355 355 357 356 354 348 350 347 341 312 310 307 308 308 296 312 312 314 318 316 313
234 236 230 228 216 213 213 210 203 192 190 194 193 189 187 189 193 198 206 239 307 344 350 352 353 351 347 343 338 335 331 322 306 295 304 304 305 310 306 310 314 312 312
224 224 224 215 209 209 208 203 197 194 202 194 188 188 188 191 195 197 209 244 301 334 344 347 347 345 341 335 331 329 327 317 305 296 298 303 308 313 304 307 309 308 307